Ordjonıkıdze

Kazakhstan     52˚13′03″N   61˚16′49″E
temp.,
°C
wind,
m/s
gust,
m/s
humid.,
%
clouds,
%
prec.,
mm/h
press.,
hPa
HPBL,
m
28 november, sat
sat2823:00−10˚n239674 0.1 103027
02:00−12˚nnw339664 0.0 103045
05:00−12˚nnw349668 0.1 103282
08:00−13˚nnw349670 0.0 103467
11:00−11˚nnw469465 0.0 1037193
14:00−10˚nnw369128 0.0 1039293
17:00−12˚nw349324 0.0 104140
20:00−13˚nw33930 0.0 104327
29 november, sun
sun2923:00−14˚nnw23930 0.0 104522
02:00−14˚nnw23930 0.0 104620
05:00−14˚nnw22930 0.0 104820
08:00−14˚nnw229282 0.0 104920
11:00−12˚n229283 0.0 105153
14:00−11˚nnw129134 0.0 105082
17:00−13˚n119165 0.0 105221
20:00−14˚ne119181 0.0 105220
30 november, mon
mon3023:00−14˚n119140 0.0 105220
02:00−14˚n12920 0.0 105220
05:00−15˚n11920 0.0 105320
08:00−15˚nne22930 0.0 105320
11:00−13˚nne22940 0.0 105348
14:00−12˚nne239321 0.0 1052132
17:00−14˚ne239510 0.0 105321
20:00−16˚ne239731 0.0 105321
1 december, tue
tue123:00−16˚ne339742 0.0 105330
02:00−17˚ne339734 0.0 105231
05:00−18˚ne239730 0.0 105228
08:00−19˚ne34977 0.0 105246
11:00−17˚ene35955 0.0 1052161
14:00−16˚ne35920 0.0 1051197
17:00−18˚ne34940 0.0 105154
20:00−18˚ne34930 0.0 105169
2 december, wed
wed223:00−18˚ene34950 0.0 105163
02:00−18˚ne34950 0.0 105056
05:00−18˚ne44940 0.0 104975
08:00−18˚ne46973 0.0 104991
11:00−16˚ne37954 0.0 1048152
14:00−13˚ne35920 0.0 1047179
17:00−15˚ne34930 0.0 104657
20:00−16˚ne34930 0.0 104551